{"data":{"norad_id":68045,"epoch":"2026-09-19T15:01:57.258624Z","epoch_age_seconds":134997,"freshness":"FRESH","line1":"1 68045U 26041F   26262.62635716  .00023149  00000+0  69430-3 0  9993","line2":"2 68045  53.1588 223.8998 0001353  87.7015 272.4143 15.34393513 31156","mean_motion":15.34393513,"eccentricity":0.0001353,"inclination_deg":53.1588,"raan_deg":223.8998,"arg_perigee_deg":87.7015,"mean_anomaly_deg":272.4143,"bstar":0.0006943,"rev_number":3115,"period_min":93.848154844226,"perigee_km":461.79695271292,"apogee_km":463.6480892993,"semimajor_km":6840.8595210061,"source":"CELESTRAK","updated_at":"2026-09-20T09:00:43.747899Z"}}